• en Belgique
  • Liste des pays
  • À 7 jours
  • Température de l'eau
  • Carte satellitaire
  • Carte météo
  • Widgets météo
  • user-avatar
    Se connecter

    Météo par heure à Sokoly

    Ce jour, 21 Juin, Jeudi

    Heure Température Précipitation Vent Pression Humidité
    00:00 +18°C° 0 mm 2 m/s 749 mmHg 78%
    01:00 +18°C° 0 mm 2 m/s 749 mmHg 77%
    02:00 +18°C° 0 mm 2 m/s 748 mmHg 76%
    03:00 +19°C° 0 mm 2 m/s 748 mmHg 75%
    04:00 +19°C° 0 mm 2 m/s 748 mmHg 75%
    05:00 +20°C° 0 mm 3 m/s 747 mmHg 72%
    06:00 +22°C° 0 mm 3 m/s 747 mmHg 70%
    07:00 +25°C° 0 mm 4 m/s 746 mmHg 66%
    08:00 +26°C° 0 mm 5 m/s 746 mmHg 62%
    09:00 +27°C° 0 mm 5 m/s 745 mmHg 58%
    10:00 +28°C° 0 mm 6 m/s 744 mmHg 54%
    11:00 +28°C° 0,1 mm 6 m/s 744 mmHg 53%
    12:00 +29°C° 0,1 mm 6 m/s 743 mmHg 53%
    13:00 +29°C° 0,1 mm 6 m/s 742 mmHg 52%
    14:00 +29°C° 0,2 mm 6 m/s 741 mmHg 55%
    15:00 +28°C° 0,2 mm 5 m/s 741 mmHg 59%
    16:00 +28°C° 0,2 mm 5 m/s 740 mmHg 62%
    17:00 +26°C° 1,1 mm 5 m/s 740 mmHg 69%
    18:00 +25°C° 1,1 mm 5 m/s 739 mmHg 75%
    19:00 +22°C° 1,1 mm 6 m/s 739 mmHg 82%
    20:00 +20°C° 2,1 mm 5 m/s 740 mmHg 86%
    21:00 +17°C° 2,1 mm 5 m/s 740 mmHg 89%
    22:00 +14°C° 2,1 mm 5 m/s 741 mmHg 93%
    23:00 +13°C° 0 mm 5 m/s 741 mmHg 93%

    Demain, 22 Juin, Vendredi

    Heure Température Précipitation Vent Pression Humidité
    00:00 +12°C° 0 mm 4 m/s 742 mmHg 94%
    01:00 +11°C° 0 mm 4 m/s 742 mmHg 94%
    02:00 +11°C° 0 mm 4 m/s 743 mmHg 93%
    03:00 +10°C° 0 mm 4 m/s 743 mmHg 93%
    04:00 +9°C° 0 mm 5 m/s 743 mmHg 92%
    05:00 +10°C° 0 mm 5 m/s 744 mmHg 86%
    06:00 +10°C° 0 mm 6 m/s 744 mmHg 80%
    07:00 +11°C° 0 mm 6 m/s 744 mmHg 75%
    08:00 +13°C° 0 mm 6 m/s 744 mmHg 68%
    09:00 +14°C° 0 mm 7 m/s 745 mmHg 61%
    10:00 +16°C° 0 mm 7 m/s 745 mmHg 53%
    11:00 +16°C° 0,1 mm 7 m/s 745 mmHg 52%
    12:00 +17°C° 0,1 mm 7 m/s 745 mmHg 51%
    13:00 +17°C° 0,1 mm 7 m/s 745 mmHg 50%
    14:00 +17°C° 0,1 mm 6 m/s 745 mmHg 51%
    15:00 +17°C° 0,1 mm 6 m/s 745 mmHg 52%
    16:00 +17°C° 0,1 mm 5 m/s 745 mmHg 53%
    17:00 +16°C° 0,1 mm 5 m/s 745 mmHg 58%
    18:00 +15°C° 0,1 mm 4 m/s 745 mmHg 64%
    19:00 +14°C° 0,1 mm 3 m/s 746 mmHg 69%
    20:00 +13°C° 0 mm 3 m/s 746 mmHg 74%
    21:00 +11°C° 0 mm 3 m/s 746 mmHg 78%
    22:00 +10°C° 0 mm 3 m/s 746 mmHg 83%
    23:00 +9°C° 0 mm 3 m/s 746 mmHg 86%

    Après-demain, 23 Juin, Samedi

    Heure Température Précipitation Vent Pression Humidité
    00:00 +9°C° 0 mm 3 m/s 746 mmHg 89%
    01:00 +8°C° 0 mm 3 m/s 746 mmHg 92%
    02:00 +8°C° 0 mm 3 m/s 746 mmHg 93%
    03:00 +8°C° 0 mm 2 m/s 746 mmHg 94%
    04:00 +8°C° 0 mm 2 m/s 746 mmHg 94%
    05:00 +10°C° 0 mm 3 m/s 746 mmHg 87%
    06:00 +12°C° 0 mm 3 m/s 746 mmHg 79%
    07:00 +14°C° 0 mm 4 m/s 746 mmHg 71%
    08:00 +14°C° 0,4 mm 4 m/s 745 mmHg 72%
    09:00 +15°C° 0,4 mm 5 m/s 745 mmHg 73%
    10:00 +15°C° 0,4 mm 5 m/s 745 mmHg 74%
    11:00 +15°C° 0,7 mm 5 m/s 745 mmHg 75%
    12:00 +15°C° 0,7 mm 5 m/s 745 mmHg 75%
    13:00 +16°C° 0,7 mm 5 m/s 745 mmHg 75%
    14:00 +17°C° 0,7 mm 4 m/s 745 mmHg 75%
    15:00 +17°C° 0,7 mm 4 m/s 744 mmHg 75%
    16:00 +17°C° 0,7 mm 4 m/s 744 mmHg 76%
    17:00 +15°C° 0,3 mm 4 m/s 744 mmHg 79%
    18:00 +14°C° 0,3 mm 3 m/s 745 mmHg 82%
    19:00 +14°C° 0,3 mm 2 m/s 745 mmHg 86%
    20:00 +13°C° 0 mm 2 m/s 745 mmHg 88%
    21:00 +12°C° 0 mm 2 m/s 745 mmHg 90%
    22:00 +10°C° 0 mm 2 m/s 745 mmHg 93%
    23:00 +9°C° 0 mm 2 m/s 745 mmHg 93%

    24 Juin, Dimanche

    Heure Température Précipitation Vent Pression Humidité
    00:00 +8°C° 0 mm 3 m/s 745 mmHg 94%
    01:00 +8°C° 0 mm 3 m/s 745 mmHg 94%
    02:00 +8°C° 0 mm 3 m/s 745 mmHg 94%
    03:00 +8°C° 0 mm 3 m/s 746 mmHg 94%
    04:00 +8°C° 0 mm 3 m/s 746 mmHg 93%
    05:00 +10°C° 0 mm 3 m/s 746 mmHg 88%
    06:00 +11°C° 0 mm 3 m/s 746 mmHg 82%
    07:00 +13°C° 0 mm 3 m/s 746 mmHg 76%
    08:00 +14°C° 0,1 mm 3 m/s 746 mmHg 71%
    09:00 +16°C° 0,1 mm 3 m/s 746 mmHg 65%
    10:00 +18°C° 0,1 mm 3 m/s 746 mmHg 59%
    11:00 +18°C° 0,3 mm 3 m/s 746 mmHg 59%
    12:00 +18°C° 0,3 mm 4 m/s 747 mmHg 59%
    13:00 +19°C° 0,3 mm 4 m/s 747 mmHg 58%
    14:00 +19°C° 0,3 mm 4 m/s 747 mmHg 59%
    15:00 +19°C° 0,3 mm 4 m/s 747 mmHg 60%
    16:00 +19°C° 0,3 mm 4 m/s 747 mmHg 60%
    17:00 +18°C° 0,1 mm 3 m/s 747 mmHg 65%
    18:00 +17°C° 0,1 mm 3 m/s 747 mmHg 70%
    19:00 +16°C° 0,1 mm 2 m/s 748 mmHg 76%
    20:00 +14°C° 0 mm 2 m/s 748 mmHg 79%
    21:00 +13°C° 0 mm 2 m/s 748 mmHg 83%
    22:00 +12°C° 0 mm 1 m/s 749 mmHg 86%
    23:00 +11°C° 0 mm 1 m/s 749 mmHg 87%

    25 Juin, Lundi

    Heure Température Précipitation Vent Pression Humidité
    00:00 +11°C° 0 mm 1 m/s 749 mmHg 88%
    01:00 +10°C° 0 mm 2 m/s 749 mmHg 89%
    02:00 +10°C° 0 mm 2 m/s 749 mmHg 89%
    03:00 +10°C° 0 mm 2 m/s 749 mmHg 90%
    04:00 +9°C° 0 mm 2 m/s 750 mmHg 90%
    05:00 +12°C° 0 mm 2 m/s 750 mmHg 84%
    06:00 +14°C° 0 mm 2 m/s 750 mmHg 78%
    07:00 +16°C° 0 mm 2 m/s 750 mmHg 72%
    08:00 +17°C° 0,1 mm 2 m/s 751 mmHg 67%
    09:00 +18°C° 0,1 mm 2 m/s 751 mmHg 62%
    10:00 +19°C° 0,1 mm 3 m/s 751 mmHg 57%
    11:00 +20°C° 0,3 mm 3 m/s 751 mmHg 57%
    12:00 +20°C° 0,3 mm 3 m/s 751 mmHg 57%
    13:00 +20°C° 0,3 mm 3 m/s 751 mmHg 57%
    14:00 +20°C° 0,3 mm 3 m/s 751 mmHg 57%
    15:00 +20°C° 0,3 mm 3 m/s 751 mmHg 57%
    16:00 +20°C° 0,3 mm 3 m/s 751 mmHg 58%
    17:00 +19°C° 0,1 mm 3 m/s 751 mmHg 62%
    18:00 +18°C° 0,1 mm 2 m/s 751 mmHg 67%
    19:00 +17°C° 0,1 mm 2 m/s 751 mmHg 72%
    20:00 +15°C° 0 mm 2 m/s 751 mmHg 76%
    21:00 +14°C° 0 mm 2 m/s 751 mmHg 80%
    22:00 +13°C° 0 mm 2 m/s 751 mmHg 84%
    23:00 +12°C° 0 mm 2 m/s 751 mmHg 85%

    26 Juin, Mardi

    Heure Température Précipitation Vent Pression Humidité
    00:00 +12°C° 0 mm 1 m/s 751 mmHg 85%
    01:00 +12°C° 0 mm 1 m/s 751 mmHg 86%
    02:00 +12°C° 0 mm 1 m/s 751 mmHg 86%
    03:00 +12°C° 0 mm 1 m/s 751 mmHg 85%
    04:00 +12°C° 0 mm 1 m/s 751 mmHg 85%
    05:00 +12°C° 0,5 mm 1 m/s 751 mmHg 86%
    06:00 +13°C° 0,5 mm 1 m/s 752 mmHg 86%
    07:00 +13°C° 0,5 mm 2 m/s 752 mmHg 87%
    08:00 +14°C° 0,6 mm 2 m/s 752 mmHg 86%
    09:00 +14°C° 0,6 mm 2 m/s 752 mmHg 84%
    10:00 +15°C° 0,6 mm 2 m/s 752 mmHg 83%
    11:00 +16°C° 0,1 mm 2 m/s 751 mmHg 78%
    12:00 +17°C° 0,1 mm 2 m/s 751 mmHg 73%
    13:00 +19°C° 0,1 mm 2 m/s 751 mmHg 67%
    14:00 +19°C° 0,5 mm 2 m/s 751 mmHg 67%
    15:00 +19°C° 0,5 mm 2 m/s 751 mmHg 66%
    16:00 +21°C° 0,5 mm 1 m/s 751 mmHg 65%
    17:00 +20°C° 0,6 mm 1 m/s 751 mmHg 71%
    18:00 +19°C° 0,6 mm 1 m/s 751 mmHg 76%
    19:00 +18°C° 0,6 mm 1 m/s 751 mmHg 81%
    20:00 +16°C° 0,1 mm 1 m/s 751 mmHg 83%
    21:00 +15°C° 0,1 mm 1 m/s 752 mmHg 85%
    22:00 +14°C° 0,1 mm 1 m/s 752 mmHg 87%
    23:00 +13°C° 0 mm 1 m/s 752 mmHg 87%
    Voir plus